GW3771 Weather Reports


time (UTC)temp
F
wind
direction
speed
knots
gust
knots
rain 1hr
in
rain 24hr
in
rain mn
in
humidity
%
barometer
mb
20260503185039 84 298 2.6 7.8 0.00 0.01 0.00 37 1010.4
20260503184547 83 17 2.6 7.8 0.00 0.01 0.00 37 1010.4
20260503184041 83 10 3.5 7.8 0.00 0.01 0.00 38 1010.5
20260503183538 82 20 1.7 7.0 0.00 0.01 0.00 39 1010.6
20260503183048 82 38 2.6 7.8 0.00 0.01 0.00 40 1010.6
20260503182540 81 249 2.6 7.8 0.00 0.01 0.00 41 1010.6
20260503182043 80 349 3.5 7.8 0.00 0.01 0.00 41 1010.7
20260503181551 80 321 1.7 7.8 0.00 0.01 0.00 43 1010.6
20260503181039 79 338 1.7 7.8 0.00 0.01 0.00 45 1010.7
20260503180539 79 360 4.3 7.8 0.00 0.01 0.00 44 1010.8
20260503180055 78 304 1.7 7.0 0.00 0.01 0.00 46 1010.8
20260503175538 78 352 0.9 7.8 0.00 0.01 0.00 47 1010.8
20260503175038 78 5 2.6 7.8 0.00 0.01 0.00 48 1010.9
20260503174554 77 352 2.6 7.8 0.00 0.01 0.00 47 1011.0
20260503174039 76 33 1.7 7.8 0.00 0.01 0.00 50 1010.9
20260503173539 76 327 2.6 7.8 0.00 0.01 0.00 50 1010.9
20260503173051 76 345 2.6 7.0 0.00 0.01 0.00 50 1010.9
20260503172539 75 24 1.7 7.0 0.00 0.01 0.00 51 1011.0
20260503172039 75 40 3.5 7.0 0.00 0.01 0.00 52 1010.9
20260503171553 74 49 1.7 7.0 0.00 0.01 0.00 53 1011.0
20260503171038 74 318 2.6 7.0 0.00 0.01 0.00 54 1011.0
20260503170540 73 346 1.7 7.8 0.00 0.01 0.00 54 1011.1
20260503150538 53 0 0.0 0.0 0.00 0.01 0.00 94 1011.6
20260503131038 48 0 0.0 0.0 0.00 0.01 0.00 89 1011.5
20260503130538 48 0 0.0 0.0 0.00 0.01 0.00 89 1011.4
20260503110538 51 0 0.0 0.0 0.00 0.01 0.00 87 1011.6
20260503081554 55 0 0.0 0.0 0.00 0.01 0.00 84 1012.2
20260503081038 55 0 0.0 0.0 0.00 0.01 0.00 84 1012.2
20260503080538 55 0 0.0 0.0 0.00 0.01 0.00 84 1012.2
20260503072539 57 0 0.0 0.0 0.00 0.01 0.00 82 1012.2
20260503072041 57 0 0.0 0.0 0.00 0.01 0.00 82 1012.3
20260503071603 57 0 0.0 0.0 0.00 0.01 0.00 82 1012.2
20260503071038 57 0 0.0 0.9 0.00 0.01 0.00 82 1012.2
20260503070539 57 0 0.0 0.9 0.00 0.01 0.00 82 1012.2
20260503055039 61 0 0.0 0.0 0.00 0.01 0.01 77 1012.3
20260503054606 61 0 0.0 0.0 0.00 0.01 0.01 77 1012.3
20260503054038 61 0 0.0 0.0 0.00 0.01 0.01 77 1012.4
20260503053539 61 0 0.0 2.6 0.00 0.01 0.01 76 1012.3
20260503053043 62 0 0.0 3.5 0.00 0.01 0.01 76 1012.2
20260503052539 62 203 0.9 3.5 0.00 0.01 0.01 76 1012.2
20260503052038 62 0 0.0 1.7 0.00 0.01 0.01 76 1012.2
20260503051549 62 0 0.0 1.7 0.00 0.01 0.01 75 1012.2
20260503051038 62 103 0.0 2.6 0.00 0.01 0.01 75 1012.2
20260503050538 62 0 0.0 2.6 0.00 0.01 0.01 75 1012.2
20260503050055 62 202 0.0 3.5 0.00 0.01 0.01 75 1012.2
20260503045542 63 331 0.9 5.2 0.00 0.01 0.01 75 1012.3
20260503045038 63 61 1.7 5.2 0.00 0.01 0.01 75 1012.4
20260503044549 63 73 2.6 5.2 0.00 0.01 0.01 74 1012.4
20260503044040 63 71 0.9 2.6 0.00 0.01 0.01 74 1012.1
20260503043538 63 0 0.0 3.5 0.00 0.01 0.01 74 1012.0
20260503043054 63 0 0.0 3.5 0.00 0.01 0.01 74 1012.0
20260503042538 63 181 1.7 2.6 0.00 0.01 0.01 74 1011.9
20260503042038 63 127 0.9 3.5 0.00 0.01 0.01 74 1012.0
20260503041548 63 0 0.0 3.5 0.00 0.01 0.01 74 1011.8
20260503041037 63 331 0.9 3.5 0.00 0.01 0.01 74 1011.9
20260503040537 63 11 0.9 4.3 0.00 0.01 0.01 74 1011.9
20260503040051 63 360 1.7 4.3 0.00 0.01 0.01 73 1012.0
20260503035538 63 317 2.6 7.0 0.00 0.01 0.01 73 1012.1
20260503035039 64 28 0.9 7.0 0.00 0.01 0.01 73 1012.1
20260503034549 64 360 3.5 7.0 0.00 0.01 0.01 71 1012.1
20260503034038 64 43 0.0 1.7 0.00 0.01 0.01 71 1012.1
20260503033540 65 0 0.0 2.6 0.00 0.01 0.01 70 1011.9
20260503033042 65 15 0.9 2.6 0.00 0.01 0.01 70 1011.8
20260503032538 65 48 0.0 1.7 0.00 0.01 0.01 69 1011.8
20260503032038 65 89 0.0 1.7 0.00 0.01 0.01 69 1011.7
20260503031549 65 0 0.0 2.6 0.00 0.01 0.01 69 1011.7
20260503031039 65 0 0.0 2.6 0.00 0.01 0.01 68 1011.6
20260503030538 66 100 0.9 2.6 0.00 0.01 0.01 68 1011.5
20260503030050 66 344 0.9 3.5 0.00 0.01 0.01 68 1011.5
20260503025539 66 0 0.0 3.5 0.00 0.01 0.01 68 1011.7
20260503025039 66 337 1.7 3.5 0.00 0.01 0.01 67 1011.6
20260503024547 66 191 0.0 2.6 0.00 0.01 0.01 67 1011.8
20260503024038 66 302 0.9 5.2 0.00 0.01 0.01 67 1011.7
20260503023538 67 239 0.0 7.0 0.00 0.01 0.01 66 1011.9
20260503023047 67 180 1.7 7.8 0.00 0.01 0.01 66 1012.1
20260503022538 67 165 2.6 12.2 0.00 0.01 0.01 66 1012.1
20260503022038 67 172 2.6 12.2 0.00 0.01 0.01 65 1012.2
20260503021545 68 146 3.5 10.4 0.00 0.01 0.01 65 1012.3
20260503021038 68 175 4.3 13.9 0.00 0.01 0.01 65 1012.4
20260503020538 68 217 2.6 14.8 0.00 0.01 0.01 65 1012.4
20260503020048 69 150 7.0 14.8 0.00 0.01 0.01 64 1012.3
20260503015541 69 161 5.2 12.2 0.00 0.01 0.01 63 1012.1
20260503015038 70 165 1.7 7.8 0.00 0.01 0.01 63 1011.7
20260503014559 70 169 4.3 7.8 0.00 0.01 0.01 62 1011.4
20260503014038 70 0 1.7 4.3 0.00 0.01 0.01 61 1011.4
20260503013538 70 157 0.9 4.3 0.00 0.01 0.01 60 1011.3
20260503013046 70 210 0.9 4.3 0.00 0.01 0.01 60 1011.2
20260503012538 70 155 1.7 3.5 0.00 0.01 0.01 60 1011.2
20260503012037 70 158 0.0 4.3 0.00 0.01 0.01 60 1011.2
20260503011548 71 128 1.7 5.2 0.00 0.01 0.01 60 1011.2
20260503011039 71 165 1.7 5.2 0.00 0.01 0.01 60 1011.2
20260503010539 71 188 0.0 4.3 0.00 0.01 0.01 60 1011.2
20260503010051 71 181 2.6 4.3 0.00 0.01 0.01 59 1011.1
20260503005539 71 161 1.7 4.3 0.00 0.01 0.01 60 1011.2
20260503005039 71 0 0.9 4.3 0.00 0.01 0.01 59 1011.1
20260503004551 71 229 0.0 3.5 0.00 0.01 0.01 58 1011.1
20260503004039 71 0 0.0 5.2 0.00 0.01 0.01 59 1011.0
20260503003538 71 0 1.7 5.2 0.00 0.01 0.01 59 1011.1
20260503003051 72 243 0.9 6.1 0.00 0.01 0.01 59 1011.1
20260503002538 72 160 2.6 6.1 0.00 0.01 0.01 57 1011.1
20260503002038 72 217 0.9 6.1 0.00 0.01 0.01 57 1011.1
20260503001550 72 165 0.9 6.1 0.00 0.01 0.01 58 1011.1
20260503001038 72 267 1.7 6.1 0.00 0.01 0.01 57 1011.1
20260503000538 72 199 1.7 5.2 0.00 0.01 0.01 59 1011.2
20260503000048 72 171 1.7 7.8 0.00 0.01 0.01 58 1011.1
20260502235538 72 227 1.7 7.8 0.00 0.01 0.01 57 1011.2
20260502235038 72 219 1.7 7.0 0.00 0.01 0.01 57 1011.2
20260502234554 73 224 2.6 7.0 0.00 0.01 0.01 56 1011.3
20260502234039 73 239 2.6 6.1 0.00 0.01 0.01 55 1011.3
20260502233539 73 175 0.9 6.1 0.00 0.01 0.01 57 1011.4
20260502233048 73 235 1.7 7.0 0.00 0.01 0.01 57 1011.5
20260502232538 73 275 1.7 7.0 0.00 0.01 0.01 56 1011.5
20260502232038 73 236 1.7 7.0 0.00 0.01 0.01 57 1011.6
20260502231548 72 173 0.9 7.0 0.00 0.01 0.01 57 1011.6
20260502231038 73 159 3.5 7.0 0.00 0.01 0.01 56 1011.7
20260502230538 73 211 0.9 7.0 0.00 0.01 0.01 56 1011.7
20260502230052 73 230 0.9 7.8 0.00 0.01 0.01 57 1011.7
20260502225538 73 200 3.5 7.8 0.00 0.01 0.01 55 1011.8
20260502225038 73 155 1.7 6.1 0.00 0.01 0.01 54 1011.9
20260502224550 73 247 1.7 6.1 0.00 0.01 0.01 56 1012.0
20260502224038 73 211 2.6 5.2 0.00 0.01 0.01 56 1012.1
20260502223538 73 187 1.7 6.1 0.00 0.01 0.01 57 1012.2
20260502223047 72 199 2.6 6.1 0.00 0.01 0.01 58 1012.3
20260502222539 72 221 1.7 6.1 0.00 0.01 0.01 57 1012.4
20260502222037 72 198 2.6 6.1 0.00 0.01 0.01 58 1012.5
20260502221555 72 167 1.7 5.2 0.00 0.01 0.01 58 1012.6
20260502221038 72 235 1.7 5.2 0.00 0.01 0.01 57 1012.7
20260502220538 72 346 1.7 5.2 0.00 0.01 0.01 57 1012.7
20260502220051 72 220 0.9 5.2 0.00 0.01 0.01 57 1012.7
20260502215539 71 219 1.7 5.2 0.00 0.01 0.01 59 1012.9
20260502215038 71 186 1.7 4.3 0.00 0.01 0.01 59 1012.9
20260502214559 71 196 0.9 4.3 0.00 0.01 0.01 60 1013.0
20260502214038 71 145 1.7 3.5 0.00 0.01 0.01 58 1013.1
20260502213538 70 191 0.0 5.2 0.00 0.01 0.01 59 1013.2
20260502213050 70 0 1.7 5.2 0.00 0.01 0.01 60 1013.2
20260502212538 70 196 0.9 7.8 0.00 0.01 0.01 59 1013.2
20260502212039 70 25 1.7 7.8 0.00 0.01 0.01 59 1013.3
20260502211549 70 265 0.9 3.5 0.00 0.01 0.01 61 1013.4
20260502211041 69 255 1.7 5.2 0.00 0.01 0.01 60 1013.5
20260502210539 69 173 0.9 5.2 0.00 0.01 0.01 61 1013.6
20260502210050 68 234 0.9 6.1 0.00 0.01 0.01 62 1013.6
20260502205540 68 351 0.9 6.1 0.00 0.01 0.01 61 1013.7
20260502205039 67 258 0.9 6.1 0.00 0.01 0.01 62 1013.8
20260502204557 67 288 1.7 5.2 0.00 0.01 0.01 63 1013.9
20260502204039 66 211 1.7 5.2 0.00 0.01 0.01 66 1014.0
20260502203539 66 290 1.7 4.3 0.00 0.01 0.01 66 1014.1
20260502203051 65 160 1.7 3.5 0.00 0.01 0.01 66 1014.2
20260502202537 64 155 0.9 4.3 0.00 0.01 0.01 66 1014.4
20260502202038 64 323 1.7 4.3 0.00 0.01 0.01 67 1014.4
20260502201550 64 344 1.7 4.3 0.00 0.01 0.01 69 1014.5
20260502201040 63 307 0.9 4.3 0.00 0.01 0.01 71 1014.5
20260502200539 62 0 0.9 5.2 0.00 0.01 0.01 74 1014.6
20260502200052 61 191 0.9 5.2 0.00 0.01 0.01 73 1014.6
20260502195538 61 71 0.9 5.2 0.00 0.01 0.01 75 1014.8
20260502195038 60 346 1.7 7.8 0.00 0.01 0.01 75 1014.8
20260502194551 60 53 1.7 7.8 0.00 0.01 0.01 75 1014.8
20260502194038 60 38 1.7 7.0 0.00 0.01 0.01 77 1014.7
20260502193539 59 5 0.9 7.0 0.00 0.01 0.01 80 1014.8
20260502193045 58 0 0.9 7.0 0.01 0.01 0.01 81 1015.0
20260502192537 57 5 2.6 7.0 0.01 0.01 0.01 82 1014.9
20260502192038 57 352 1.7 5.2 0.01 0.01 0.01 83 1014.9
20260502191544 56 240 1.7 5.2 0.01 0.01 0.01 83 1015.1
20260502191038 56 209 0.9 5.2 0.01 0.01 0.01 83 1015.3
20260502190539 56 0 0.9 7.0 0.01 0.01 0.01 83 1015.5
20260502190048 56 236 1.7 7.0 0.01 0.01 0.01 84 1015.6
20260502185538 56 234 1.7 6.1 0.01 0.01 0.01 85 1015.7